    Orbital elements:
    2009 WY7                                                 Earth MOID = 0.0099 AU
    Epoch 2020 Dec. 17.0 TT = JDT 2459200.5                 Veres
    M 239.98716              (2000.0)            P               Q
    n   1.88202078     Peri.  172.31859     -0.55308550     +0.83074016
    a   0.6497103      Node    64.08216     -0.76805190     -0.47913510
    e   0.6088772      Incl.    4.01566     -0.32278896     -0.28337314
    P   0.52           H   24.2           G   0.15           U   4
    Residuals in seconds of arc
    091119 704  0.8+  0.7+    091122 932  0.1+  0.4-    201122 718  1.5-  0.1+
    091119 704  0.4+  1.8+    091122 932  0.1+  0.0     201122 718  0.0   0.2-
    091119 704  0.5+  0.6+    091122 932  0.6+  0.1+    201122 718  0.1-  0.5-
    091119 704  0.9+  0.6+    091124 926  0.8-  0.0     201122 718  0.2+  0.6+
    091120 704  0.5+  0.5+    091124 926  0.4-  0.2-    201122 L01  0.1-  0.1-
    091120 704  0.8+  1.7+    091124 926  0.5-  0.1-    201122 L01  0.1-  0.1-
    091120 704  0.7+  0.6+    091206 H21  0.7-  0.5+    201122 L01  0.0   0.1-
    091120 704  0.0   0.7+    091206 H21  1.3+  0.4+    201122 L01  0.0   0.2-
    091120 704  0.1+  1.0+    091206 H21  0.6-  0.1+    201122 L01  0.0   0.1-
    091120 704  0.1+  0.3+    201122 K88  0.3+  0.3-    201122 L01  0.1-  0.1+
    091120 704  1.0+  0.7+    201122 K88  0.1+  0.0     201122 970  0.3+  0.1-
    091120 704  0.6+  0.6+    201122 K88  0.1-  0.1-    201122 970  0.2-  0.4-
    091120 704  1.2+  0.5+    201122 K88  0.1-  0.4+    201122 470  0.6+  0.5+
    091120 704  0.5+  1.3+    201122 K88  0.6+  0.2+    201122 K88  0.4+  0.5-
    091120 G96  0.5+  0.4+    201122 K88  0.3-  0.5-    201122 470  0.2+  0.6+
    091120 G96  0.3+  0.3+    201122 K88  0.5+  0.1-    201122 K88  0.2-  0.4+
    091120 G96  0.3+  0.4+    201122 K88  0.3+  0.4-    201122 K88  1.1+  0.3+
    091120 G96  0.5+  0.3+    201122 K88  0.1-  0.7+    201122 J95  0.1-  0.2-
    091120 J95  0.2+  0.0     201122 K88  0.4-  0.2-    201122 J95  0.2+  0.2+
    091120 J95  0.2+  0.2+    201122 K88  0.1-  0.3+    201122 J95  0.0   0.1-
    091121 932  0.6+  0.6+    201122 K88  1.1+  0.3-    201122 Z99  0.3-  0.0
    091121 932  0.3+  0.3+    201122 204  0.3-  0.1-    201122 Z99  0.2-  0.2+
    091121 932  0.6+  0.1-    201122 204  0.3-  0.1+    201122 Z99  0.1-  0.2-
    091121 H01  0.2+  0.3+    201122 204  0.2-  0.1-    201122 B49  0.0   0.6+
    091121 H01  0.1+  0.1+    201122 K88  0.9+  0.5+    201122 B49  0.0   0.2+
    091121 H01  0.2+  0.3+    201122 K88  1.0+  0.5+    201122 Z99  0.0   0.3+
    091121 H01  0.5+  0.0     201122 K88  0.1-  0.1+    201122 B49  0.4+  0.1-
    091121 703  0.6-  0.1+    201122 K88  0.3+  0.1+    201122 L39  0.2+  1.1-
    091121 703  0.6-  0.1+    201122 K88  1.0+  0.0     201122 B49  0.6-  0.1+
    091121 703  0.4+  0.2+    201122 K88  0.3-  0.6-    201122 L39  0.4-  0.5+
    091121 703  0.1+  0.0     201122 K88  0.3+  0.0     201122 L39  0.4-  0.4+
    091121 703  0.1+  0.5+    201122 W34  0.6-  0.1-    201122 595  0.2-  0.1-
    091121 H21  0.3+  0.2+    201122 W34  0.8-  0.1-    201122 C77  0.3+  0.0
    091121 H21  0.3+  0.3+    201122 W34  0.6-  0.1-    201122 595  0.2+  0.5-
    091121 H21  0.3+  0.3+    201122 I52  0.1+  0.2-    201122 C77  0.1-  0.1-
    091121 H21  0.4+  0.2+    201122 I52  0.0   0.0     201122 595  0.5-  0.3+
    091121 204  0.0   0.3+    201122 I52  0.0   0.2-    201122 C77  0.2-  0.1-
    091121 204  0.1+  0.4+    201122 V01  0.6-  0.2+
    091121 204  0.1+  0.1+    201122 V01  0.1+  0.2-
    
    Ephemeris:
    2009 WY7                 a,e,i = 0.65, 0.61, 4                   q = 0.2541
    Date    TT    R. A. (2000) Decl.     Delta      r    Elong.  Phase     V
    2020 10 23    08 22 33.9 +12 45 07   0.2266  1.0006    84.9    82.1    23.8
    ...
    2020 11 07    07 49 59.7 +14 13 32   0.1337  1.0398   107.8    65.1    22.2
    ...
    2020 11 15    06 53 39.0 +16 11 08   0.08492 1.0453   129.5    46.9    20.7
    ...
    2020 11 21    05 04 05.8 +17 22 17   0.05738 1.0424   161.5    17.5    19.0
    2020 11 22    04 36 21.3 +17 05 32   0.05470 1.0414   168.8    10.6    18.7
    2020 11 23    04 06 20.2 +16 31 36   0.05286 1.0402   175.3     4.4    18.3
    ...
    2020 11 29    01 15 21.3 +08 31 32   0.06093 1.0294   133.7    43.9    19.9
    ...
    2020 12 07    23 31 14.9 +00 53 48   0.1015  1.0055    98.7    75.6    21.9
    ...
    2020 12 22    22 33 08.3 -03 32 50   0.1912  0.9304    68.4   100.6    24.1
    
    A. U. Tomatic                (C) Copyright 2020 MPC           M.P.E.C. 2020-W112
    


    Read MPEC 2020-W111 Read MPEC 2020-W113


    MPEC number:

    Enter an MPEC number in one of the following forms:

    • 1997-B01 (the full form)
    • J97B01 (the packed version of the full form)
    • B01 (the abbreviated form)